Regional Weather Roundup
Issued by NWS Portland, ME

Current Version | Previous Version | Text Only | Print | Product List | Glossary On
Versions: 1 2 3 4 5 6 7 8 9 10 11 12 13 14 15 16 17 18 19 20 21 22 23 24 25 26 27 28 29 30 31 32 33 34 35 36 37 38 39 40 41 42 43 44 45 46 47 48 49 50
000
ASUS41 KGYX 260705
RWRGYX
WEATHER ROUNDUP FOR MAINE AND NEW HAMPSHIRE
NATIONAL WEATHER SERVICE GRAY ME
300 AM EDT THU MAY 26 2016

MEZ002-005-006-010-012-015-018-020-021-024-026-027-029-260800-
MAINE

CITY           SKY/WX    TMP DP  RH WIND       PRES   REMARKS
PORTLAND       CLEAR     56  54  93 W7        30.00R
SANFORD        CLEAR     52  48  87 W5        30.01R
BAR HARBOR     CLEAR     50  49  96 CALM      29.96R
WISCASSET      CLEAR     52  50  93 CALM      30.00R
ROCKLAND       CLEAR     56  54  93 NW5       29.98R
FRYEBURG       CLEAR     57  55  93 W5        30.02R
LEWISTONAUBURN CLEAR     57  52  82 N3        30.01R
AUGUSTA        CLEAR     61  54  77 NW7       30.00R
WATERVILLE     CLEAR     59  53  80 N6        29.98R
BANGOR         CLEAR     62  54  74 W8        29.98R
GREENVILLE       N/A     53  46  77 NW12      29.99R
MILLINOCKET    CLEAR     58  50  75 W8        29.97R
HOULTON        CLOUDY    58  54  86 VRB5      29.92R
PRESQUE ISLE   CLOUDY    56  53  90 NW13      29.95R
FRENCHVILLE    CLOUDY    50  46  86 NW17G25   29.96S
CARIBOU        CLOUDY    55  51  86 NW14G22   29.93R
$$

NHZ002-005-008-009-011-012-014-260800-
NEW HAMPSHIRE

CITY           SKY/WX    TMP DP  RH WIND       PRES   REMARKS
PORTSMOUTH     PTCLDY    58  56  91 W6        30.00R
ROCHESTER      PTCLDY    64  53  67 W5        30.00R
NASHUA         CLEAR     60  56  86 CALM      30.03R
MANCHESTER     PTCLDY    63  55  75 CALM      30.01S
CONCORD        PTCLDY    57  54  89 CALM      30.03R
LACONIA        CLEAR     57  54  89 CALM      30.04R
PLYMOUTH       FAIR      53  52  97 CALM      30.04S FOG
BERLIN         PTCLDY    52  49  89 CALM      30.06R
WHITEFIELD     CLEAR     49  46  90 CALM      30.07R FOG
JAFFREY        CLOUDY    54  53  97 CALM      30.07R
KEENE          CLOUDY    54  52  94 CALM      30.06R
LEBANON        CLOUDY    54  51  90 S6        30.05R
MT WASHINGTON  FOG       43  43 100 W49         N/A  VSB 0
$$

VTZ005-007-008-260800-
VERMONT

CITY           SKY/WX    TMP DP  RH WIND       PRES   REMARKS
ST JOHNSBURY     N/A     55  51  86 MISG      30.06R
MONTPELIER     FAIR      58  53  84 N3        30.11R
BURLINGTON     FAIR      62  50  64 NW5       30.07R
$$

MAZ007-012-024-CTZ003-RIZ002-NYZ038-NYZ072-260800-
SOUTHERN NEW ENGLAND AND NY

CITY           SKY/WX    TMP DP  RH WIND       PRES   REMARKS
BOSTON         CLOUDY    71  53  52 NW8       30.01R
WORCESTER      CLEAR     66  51  58 W9        30.06R
NANTUCKET      PTCLDY    62  52  69 W13       30.03R
PROVIDENCE     CLEAR     67  51  56 W8        30.04R
HARTFORD       MOCLDY    63  54  72 NW5       30.04R
ALBANY         CLOUDY    60  53  77 CALM      30.05S
NEW YORK CITY  PTCLDY    77  54  44 W5        30.06R
$$

ANZ081-ANZ082-ANZ150-NHZ014-MEZ023>029-260800-
COASTAL MARINE OBSERVATIONS

STATION/POSITION TIME  TEMP    WIND        PRES    WAVE
                       AIR SEA DIR/SP/G            HT/PER
                 (UTC) (F)     (DEG/KT/KT) (MB)    (FT/S)
MOUNT DESERT ROC 0700   55     290/ 17/ 17 1014.2R
MATINICUS ROCK   0600   58     330/ 12/ 12 1014.0R
ISLE OF SHOALS   0600   65     250/  6/  6 1015.4S
JEFFREYS LEDGE   0608      52                N/A     3/ 8
CASHES LEDGE BUO 0650   53 51  260/  8/  8 1014.6R   3/ 8
GEORGES BANK BUO 0550   53 49              1015.3    4/ 8
$$

.............KEY..............
   WCI - WIND CHILL
   TC  - TEMPERATURE IN CELSIUS
   VSB - VISIBILITY IN MILES
   HX  - HEAT INDEX
   FAIR- INDICATES FEW OR NO CLOUDS BELOW 12,000 FT, WITH NO
         SIGNIFICANT WEATHER AND/OR OBSTRUCTIONS TO VISIBILITY.






USA.gov is the U.S. government's official web portal to all federal, state and local government web resources and services.